Theta_e
309 309 309 309 309 309 309 309 308 308 308 308 307 307 306 305 304 303 302 301 299 298 296 295 295 294 295 295 295 295 295 295 295 295 295 295 295 295 295 295 295 295
309 309 309 308 309 309 309 309 309 308 308 308 307 306 305 305 304 303 302 301 300 298 296 295 294 294 294 294 294 294 294 295 295 295 295 295 295 295 295 295 295 295
309 309 309 309 309 309 309 308 308 308 308 307 306 306 305 305 303 303 302 301 300 299 297 296 294 294 294 294 294 294 294 294 294 295 294 294 294 294 294 294 295 295
310 310 310 310 309 309 308 308 308 308 308 307 307 306 305 304 303 302 301 300 300 299 298 296 294 294 293 293 293 293 293 294 294 294 294 294 294 294 294 294 294 294
310 309 309 310 309 309 309 308 308 308 308 307 307 306 305 304 303 302 301 300 299 299 298 296 295 294 293 293 293 293 293 293 294 294 294 294 294 294 294 294 294 294
310 310 309 309 309 309 309 309 309 308 308 307 307 306 305 305 304 303 301 300 299 298 298 297 295 294 293 293 292 292 293 293 293 293 294 294 294 294 294 294 294 294
311 311 310 309 308 308 308 308 308 308 308 307 306 306 305 305 304 303 302 300 299 298 298 297 296 294 293 293 292 292 292 292 293 293 293 293 293 293 294 293 294 293
311 310 309 309 308 307 307 307 308 308 307 307 306 306 305 305 304 303 302 300 298 298 297 297 296 295 294 293 292 292 292 292 292 293 293 293 293 293 293 293 293 293
309 309 308 308 307 307 307 307 307 307 307 307 307 306 305 305 304 303 302 300 298 297 297 296 296 295 294 293 292 292 292 292 292 292 293 293 293 293 293 293 293 292
309 308 307 307 307 307 307 308 307 307 307 307 306 306 305 305 304 303 301 300 298 297 297 296 296 295 294 293 292 292 292 292 292 292 292 293 293 293 293 293 293 292
310 309 308 307 307 307 308 308 307 307 306 306 306 305 305 305 304 303 301 300 299 298 297 296 296 295 294 293 293 292 292 291 292 292 292 292 292 292 292 292 292 292
309 309 308 308 308 308 308 307 307 306 305 305 305 305 305 304 303 303 302 301 300 298 297 296 295 295 294 293 293 292 292 291 291 291 292 292 292 292 292 292 292 291
308 309 308 308 308 308 307 306 305 304 304 304 303 303 303 303 303 303 302 301 300 298 297 296 295 295 294 293 293 292 292 291 291 291 291 291 291 291 291 291 291 291
307 308 308 307 307 306 306 305 303 302 302 302 302 302 302 302 302 302 301 299 298 297 297 296 295 295 294 293 292 292 291 291 291 291 291 291 291 291 291 291 291 290
307 307 307 306 305 305 305 304 303 302 301 302 302 301 300 299 299 299 298 297 297 296 295 295 295 295 294 293 293 292 291 291 290 290 291 291 290 290 290 290 290 289
306 306 305 305 304 304 304 303 302 301 301 301 301 300 299 298 297 297 297 296 296 295 295 295 294 294 294 293 293 292 291 290 290 290 290 290 290 290 290 290 289 289
304 304 304 303 303 303 303 302 301 301 301 301 300 299 298 297 297 297 296 296 295 295 295 295 294 294 294 293 292 292 291 290 290 290 290 290 290 290 289 289 289 288
303 303 303 302 303 303 302 302 301 300 300 300 299 299 298 297 297 296 296 295 295 294 294 294 294 294 293 293 292 291 290 290 289 289 289 289 289 289 289 288 288 288
302 302 302 302 302 302 302 301 300 300 300 300 300 299 298 297 297 296 295 295 294 294 294 293 293 293 293 292 292 291 290 289 289 289 289 289 289 288 288 288 287 287
300 300 301 301 301 301 301 300 300 300 300 300 299 298 298 298 297 296 295 295 294 293 293 293 292 292 292 292 291 291 290 289 288 288 288 288 288 288 288 287 287 287
298 299 299 299 299 299 299 299 299 299 299 299 299 298 298 298 297 296 295 294 293 293 292 292 292 292 291 291 291 290 289 288 288 287 287 287 287 287 287 287 286 286
297 297 297 297 297 298 298 298 299 299 299 299 298 298 297 296 295 295 294 293 292 292 292 291 291 291 291 290 290 289 288 288 287 287 287 286 286 286 286 286 286 286
297 297 296 296 296 296 297 297 297 297 297 297 296 296 295 295 294 293 293 292 292 291 291 291 290 290 290 290 289 288 288 287 287 286 286 286 286 286 286 286 286 286
297 296 296 295 295 295 295 296 296 296 296 295 295 295 294 294 294 293 292 291 291 291 290 290 290 290 290 290 289 288 287 287 286 286 286 286 285 285 285 285 286 285
298 296 295 295 294 294 294 294 294 295 294 294 294 294 293 293 293 292 292 291 291 291 290 290 290 290 290 290 288 287 286 286 286 286 285 285 285 285 285 285 285 285
298 297 296 295 294 293 293 293 293 293 293 293 293 292 292 292 292 291 291 291 291 291 290 290 290 290 290 289 287 285 285 285 285 285 285 285 286 286 285 285 285 285
Wind_Speed
39 40 41 42 42 41 41 41 41 41 41 41 41 41 40 40 41 41 42 42 44 45 46 46 45 43 42 41 40 39 38 35 33 31 29 27 25 23 22 22 22 23
40 41 42 42 43 42 43 42 42 42 42 41 41 41 41 41 41 40 40 41 43 45 46 46 45 44 43 43 42 40 38 36 34 33 31 28 26 25 23 23 23 23
42 43 44 44 44 44 45 44 45 44 43 43 43 43 43 43 42 41 40 41 42 44 46 46 46 45 44 44 43 41 39 37 35 34 31 29 28 26 25 24 24 24
44 45 45 46 46 46 46 46 46 45 45 45 45 45 45 44 43 42 41 41 42 44 45 46 46 46 45 45 43 42 39 37 35 34 32 31 29 28 26 26 25 25
45 47 47 47 47 47 48 48 47 47 47 47 47 47 47 46 45 44 42 42 42 43 45 46 47 47 46 46 44 43 40 38 37 35 34 32 30 29 28 27 26 26
47 48 49 49 50 50 50 50 49 49 49 48 49 49 48 47 46 45 44 43 42 43 44 45 47 47 47 47 45 44 42 40 39 37 36 34 32 31 29 28 27 26
48 50 51 52 52 53 53 52 51 51 50 50 51 51 50 49 48 47 46 44 43 43 43 44 46 47 48 48 47 45 43 42 40 39 37 35 33 32 31 29 28 26
48 52 54 55 55 56 56 55 54 53 52 53 53 52 51 50 49 48 47 46 44 43 43 43 45 46 48 48 48 47 45 44 42 40 38 37 35 34 32 30 28 27
49 52 55 57 58 58 58 57 57 56 55 55 55 54 53 52 51 50 49 48 46 44 43 43 44 46 48 49 49 48 47 45 44 42 40 39 37 35 33 31 29 28
53 54 54 56 58 59 60 59 59 59 58 58 57 56 55 53 52 52 51 49 47 46 44 44 45 47 48 49 49 49 48 46 45 43 42 40 37 35 33 31 30 29
55 56 55 55 55 56 58 60 61 61 61 61 60 58 57 55 55 54 53 52 50 48 46 45 45 46 48 49 49 49 48 47 46 44 42 40 38 36 34 32 31 30
55 57 56 54 52 51 53 59 63 64 64 63 61 60 59 58 57 56 55 54 52 50 48 46 45 46 48 49 49 49 48 47 46 45 43 41 39 37 35 33 32 31
53 56 56 52 49 48 50 56 61 63 64 63 62 61 61 60 59 58 57 55 54 52 50 47 45 46 47 49 50 49 49 48 48 46 44 42 40 37 35 34 32 31
50 52 53 51 49 50 52 55 59 61 62 62 60 61 61 61 60 58 57 56 54 53 51 48 46 47 47 49 51 50 49 50 49 47 46 43 41 39 37 35 33 31
48 48 50 50 50 52 53 55 57 58 59 59 60 61 61 60 58 57 56 55 54 53 51 50 49 48 49 50 51 51 51 51 50 48 47 45 43 40 38 36 33 31
47 47 49 49 50 51 53 54 55 56 56 57 59 60 59 57 56 56 56 55 54 53 52 52 51 51 50 49 50 51 51 51 50 49 47 45 43 41 38 36 33 31
46 46 47 48 49 50 51 53 53 54 55 56 57 57 57 56 55 55 56 55 54 54 54 54 53 52 51 49 49 50 51 51 51 50 48 46 43 41 38 35 33 31
44 44 45 46 46 48 50 51 51 53 54 55 55 55 54 54 54 55 55 55 54 54 54 54 53 52 50 49 49 50 51 51 51 50 48 46 44 41 37 34 33 31
42 42 43 44 44 46 48 49 50 52 53 53 53 53 52 52 53 54 54 54 54 55 55 54 53 51 50 49 49 50 51 52 51 49 48 45 43 40 37 35 33 32
38 39 41 42 42 44 46 48 49 50 51 51 50 50 50 51 52 53 53 53 54 54 54 53 52 51 50 49 49 50 51 52 50 48 46 44 41 38 37 35 34 32
35 37 38 40 41 42 44 45 47 48 49 49 49 49 50 50 51 52 52 53 53 53 53 52 52 51 50 49 49 51 52 52 50 48 46 43 40 38 36 35 34 33
31 33 36 37 39 41 43 44 46 47 47 48 48 48 49 49 50 50 51 51 51 52 52 52 52 51 49 49 50 51 52 52 50 48 46 43 40 38 37 36 35 33
30 31 32 35 37 40 42 44 45 46 47 47 47 48 48 49 49 49 50 50 50 51 51 52 51 50 49 49 50 52 53 53 51 49 46 43 41 39 38 37 35 33
33 30 30 32 35 38 40 42 44 45 46 46 46 47 47 48 48 48 48 48 48 49 50 50 49 48 47 48 50 52 54 53 51 49 46 43 41 40 38 37 35 32
37 33 30 30 32 35 37 40 42 44 45 45 45 46 46 46 46 47 47 47 47 47 47 47 47 46 46 47 49 51 54 53 50 49 47 44 42 41 39 37 35 33
38 36 32 29 30 32 35 37 40 41 43 44 44 45 45 45 45 46 46 46 46 46 46 46 45 45 45 46 48 50 52 52 50 49 48 45 43 41 39 37 35 33
Wind_Direction
232 232 233 234 235 236 236 237 238 239 240 241 242 242 242 242 240 238 236 235 235 234 233 232 232 232 232 233 233 233 233 234 235 237 239 242 245 249 253 258 261 264
232 232 233 234 234 235 236 237 238 239 241 242 243 244 245 245 244 241 239 237 237 236 234 233 232 232 233 233 233 233 232 232 233 235 238 240 243 246 248 253 257 261
233 233 232 232 232 233 235 237 239 240 241 243 244 245 246 246 246 244 241 239 238 238 236 234 233 233 233 233 233 233 233 233 234 236 238 239 241 243 246 250 254 259
233 233 232 233 234 235 238 239 240 240 240 241 242 243 245 246 246 245 242 240 239 239 237 236 234 233 233 233 232 232 232 233 234 235 236 237 239 241 245 249 253 256
238 237 236 236 236 237 238 239 239 239 240 241 242 243 245 246 246 245 243 241 239 238 238 236 235 234 233 233 232 231 231 231 232 233 234 236 238 241 244 247 251 254
242 241 240 239 239 239 239 238 238 239 240 242 243 244 245 246 246 246 244 241 239 238 237 236 235 234 233 232 231 231 230 231 231 232 234 236 237 240 242 245 249 252
247 244 242 242 242 242 242 241 241 241 242 243 244 245 246 247 247 247 246 243 240 238 237 236 235 234 233 232 231 230 230 230 231 232 233 235 236 238 241 244 248 250
252 249 247 245 244 243 243 243 242 242 242 243 244 245 245 246 247 247 247 245 241 239 237 236 235 235 234 232 231 231 230 229 230 231 232 233 234 237 240 243 247 249
257 253 251 249 247 246 245 244 244 244 243 243 244 244 245 246 247 247 247 246 243 240 238 236 235 234 234 233 232 231 231 230 231 231 232 233 234 237 239 242 245 248
261 257 255 253 252 251 249 247 246 245 245 244 244 244 245 245 246 247 246 246 243 241 238 236 234 234 233 233 232 232 232 231 231 232 232 233 235 236 238 241 244 247
264 260 258 257 256 256 254 251 249 247 246 245 245 245 245 245 245 245 245 245 244 241 239 236 235 234 234 233 232 232 232 232 232 232 233 234 234 235 237 240 243 246
267 260 258 259 260 260 259 255 251 248 247 246 246 246 245 245 244 244 245 245 244 242 239 237 235 234 234 233 232 232 231 231 231 231 232 233 233 234 236 238 241 244
271 261 256 258 261 263 262 258 252 249 247 247 246 246 246 245 245 245 245 245 244 242 240 237 235 234 234 233 232 231 231 230 230 230 230 231 232 233 235 237 240 242
275 263 257 259 261 261 261 259 254 250 248 247 247 247 247 246 245 245 244 243 242 241 240 238 235 233 232 232 231 231 230 230 230 229 229 230 231 232 234 236 238 240
279 268 261 261 261 260 260 260 256 252 250 249 248 248 247 246 245 245 244 242 241 240 239 237 235 233 232 230 230 230 229 229 228 229 230 230 231 232 233 234 236 239
281 272 266 264 263 262 262 260 256 252 250 249 248 247 246 245 245 244 244 243 241 239 238 236 235 233 231 230 230 231 230 228 228 228 229 230 231 232 233 234 235 237
282 276 270 267 266 264 262 259 255 251 249 248 247 246 246 245 245 245 244 243 241 240 239 237 235 233 231 229 229 230 230 229 228 228 228 229 230 231 233 234 235 237
285 280 275 271 268 265 263 259 254 250 248 247 247 246 246 245 245 245 243 242 241 239 238 237 236 234 232 229 228 229 229 229 229 229 229 229 229 230 231 232 234 235
287 283 279 275 271 267 263 258 253 250 248 248 247 246 246 246 246 244 243 241 240 239 238 236 235 234 231 229 228 229 229 228 228 228 229 229 229 229 230 230 231 233
292 288 284 279 272 266 262 257 253 251 249 248 247 246 246 246 245 243 242 241 240 238 237 235 234 232 230 228 228 229 228 227 227 227 227 228 228 229 230 230 230 231
300 294 288 282 274 267 262 258 254 251 250 249 248 248 247 246 245 243 241 239 238 236 235 234 233 232 229 228 228 228 228 226 225 225 225 225 226 227 228 229 229 230
313 303 292 284 277 270 265 261 257 253 252 250 248 247 245 243 242 241 240 238 236 235 233 232 232 231 229 228 228 228 227 225 224 223 223 223 224 224 225 226 228 229
327 314 300 288 279 272 268 263 259 255 252 249 247 244 242 241 239 238 237 236 235 233 232 231 231 229 228 228 228 228 227 225 222 221 221 222 222 223 224 225 227 229
338 325 310 296 283 275 270 265 261 257 253 250 247 244 242 240 239 237 236 235 234 234 233 232 232 230 228 229 229 228 229 226 222 220 220 220 221 222 223 225 226 227
342 335 322 307 293 281 273 267 262 258 254 251 247 244 242 241 239 237 236 235 234 234 234 233 233 231 230 230 229 228 229 227 222 220 219 219 220 221 222 223 224 225
338 338 331 319 304 290 278 270 264 259 254 250 246 243 241 239 238 237 236 235 234 234 233 232 233 231 230 230 227 227 230 227 222 220 221 220 221 222 222 222 222 224